User: anonymous   Login
Location: Newark
(34.1333°N, 7.9667°W)
Time: 08:14:19
(UTC+00:00)
Language:

CUBESAT XI-V - Orbit

View from above orbital plane
View from above orbital plane
View from above satellite
View from above satellite

Ground track
Ground track

The orbit data is extracted from the following two-line orbital elements,

1 28895U 05043F   23159.87918130  .00001779  00000-0  33557-3 0  9991
2 28895  98.1530 292.0029 0017594  98.5741 261.7457 14.65642295939821
Epoch (UTC): 08 June 2023 21:06:01
Eccentricity: 0.0017594
inclination: 98.1530°
perigee height: 662 km
apogee height: 687 km
right ascension of ascending node: 292.0029°
argument of perigee: 98.5741°
revolutions per day: 14.65642295
mean anomaly at epoch: 261.7457°
orbit number at epoch: 93982

The dashed part of the orbit path shows where the satellite is in the earth's shadow,  

DLR